sat.trackr.live / text

‹ back to catalog

STARLINK-35180

NORAD 65462 · 2025-195E

PAYLOAD ACTIVE UNKNOWN

§ Identity

Operator
Country
US
Launch date
2025-09-03
Launch site
AFETR
Launch vehicle
Mass (kg)
RCS (m²)

Purposes: comms

External: N2YO · Heavens-Above · Gunter

§ Orbital elements

Epoch: 2026-05-25T00:36:23.738400Z

Period
93.85 min
Inclination
53.1591°
Eccentricity
0.0001162
Mean motion
15.34409949 rev/d
Perigee alt
461.9 km
Apogee alt
463.5 km
Semi-major
6,840.8 km
B*
1.0188e-3
RAAN
263.4245°
Arg perigee
51.9180°
Mean anomaly
308.1928°
Rev number
4,168

§ Raw data

STARLINK-351801 65462U 25195E   26145.02527475  .00034213  00000+0  10188-2 0  99972 65462  53.1591 263.4245 0001162  51.9180 308.1928 15.34409949 41687

JSON: /api/v1/satellites/65462 · /tle

For live sub-satellite position, see the globe view (requires WebGL).

§ Visibility from observer

Set your observer location to see the next 7 days of passes ≥ 10°. The values pass through the URL so the page stays shareable.

No JS? Fill the form by hand. The geolocation button needs JavaScript.